Content
SEND FEEDBACK

Daily
Averages
Monthly
Summary
Mexico

CANCUN, QUINTANA ROO


Home > North America > Mexico > Quintana Roo
Elevation: 30 feet     Latitude: 21 09N     Longitude: 086 49W

WEATHER
 
SELECT A DAY
Number of Records: 165,850;   Date Range: 1/1/95 - 9/30/14
 
SHARE

PRINT THIS DATA

[ ← Previous Day ]
WEATHER ALMANAC - JANUARY 25, 2013
[ Next Day → ]
[ °C ]   °F
Weather ElementAverageHighLow
Temperature74.5 °F78.8 °F (10:40 am)71.6 °F (4:41 am)
Dewpoint63.6 °F64.4 °F (1:47 am)62.6 °F (9:41 am)
Humidity69 %78 % (4:41 am)57 % (10:40 am)
Barometer30.14 in30.19 in (9:41 am)30.11 in (2:45 pm)
Wind Speed7.5 mph13.8 mph (10:40 am)
Weather ElementAverage
Visibility6.8 mi
Wind DirectionENE (67.4 °)

Weather ElementTotal
Precipitation---
Cooling Degree Days10.2 (Base 65)
Growing Degree Days25.2 (Base 50)
Averaged from 23 records on January 25, 2013
WEATHER CONDITIONS BREAKOUT
WIND DIRECTION BREAKOUT
WEATHER BY HOUR - JANUARY 25, 2013
[ °C ]   °F
Local TimeTemperatureDewpointHumidityBarometerVisibilityWind DirectionWind SpeedGust SpeedPrecipitationEventsConditions
1:47 AM73.4 °F64.4 °F73 %30.14 in6.0 miENE (60°)4.6 mphScattered Clouds
2:44 AM73.4 °F64.4 °F73 %30.12 in6.0 miENE (70°)4.6 mphScattered Clouds
3:42 AM73.4 °F64.4 °F73 %30.12 in7.0 miENE (60°)5.8 mphScattered Clouds
4:41 AM71.6 °F64.4 °F78 %30.13 in6.0 miNE (50°)4.6 mphScattered Clouds
5:40 AM71.6 °F64.4 °F78 %30.13 in6.0 miENE (60°)4.6 mphScattered Clouds
6:40 AM73.4 °F64.4 °F73 %30.15 in6.0 miENE (60°)5.8 mphScattered Clouds
7:44 AM75.2 °F64.4 °F69 %30.16 in7.0 miEast (80°)9.2 mphScattered Clouds
8:49 AM77.0 °F64.4 °F65 %30.18 in7.0 miENE (70°)10.4 mphScattered Clouds
9:41 AM77.0 °F62.6 °F61 %30.19 in7.0 miENE (60°)10.4 mphMostly Cloudy
10:40 AM78.8 °F62.6 °F57 %30.19 in7.0 miENE (60°)13.8 mphScattered Clouds
11:41 AM78.8 °F62.6 °F57 %30.18 in7.0 miENE (70°)13.8 mphMostly Cloudy
12:40 PM78.8 °F62.6 °F57 %30.15 in7.0 miENE (60°)6.9 mphMostly Cloudy
1:42 PM77.0 °F62.6 °F61 %30.12 in7.0 miENE (70°)11.5 mphScattered Clouds
2:45 PM77.0 °F62.6 °F61 %30.11 in7.0 miENE (70°)10.4 mphMostly Cloudy
3:41 PM77.0 °F64.4 °F65 %30.11 in7.0 miEast (80°)12.7 mphMostly Cloudy
4:43 PM77.0 °F64.4 °F65 %30.12 in7.0 miEast (90°)6.9 mphScattered Clouds
5:43 PM73.4 °F62.6 °F69 %30.13 in7.0 miEast (80°)5.8 mphScattered Clouds
6:43 PM71.6 °F62.6 °F73 %30.12 in7.0 miENE (60°)4.6 mphPartly Cloudy
7:41 PM71.6 °F62.6 °F73 %30.14 in7.0 miENE (70°)3.5 mphPartly Cloudy
8:45 PM71.6 °F64.4 °F78 %30.14 in7.0 miENE (60°)4.6 mphPartly Cloudy
9:48 PM71.6 °F64.4 °F78 %30.16 in7.0 miENE (70°)5.8 mphPartly Cloudy
10:47 PM71.6 °F64.4 °F78 %30.15 in7.0 miENE (70°)5.8 mphClear
11:46 PM71.6 °F62.6 °F73 %30.13 in7.0 miENE (70°)5.8 mphClear
Hourly data recorded from MMUN, located miles away from Cancun, Quintana Roo







STORIES FROM OUR PARTNERS